Location: Raven Hill Discovery Center
(45.1336°N, 85.0553°W)
Time: 04:52:02
(UTC-05:00)

Daily predictions for brighter satellites

Satellite Brightness Start Highest point End
(mag) Time Altitude Azimuth Time Altitude Azimuth Time Altitude Azimuth
SL-16 R/B 3.4 04:57:16 35° SE 04:57:16 35° SE 05:00:29 10° SE
SeaSat 1 4.2 04:54:44 10° NNE 04:57:03 27° NE 04:57:03 27° NE
Cosmos 2297 Rocket 3.3 05:05:23 36° NNE 05:05:23 36° NNE 05:08:38 10° NNE
USA 229 DEB 4.0 05:13:19 58° S 05:13:19 58° S 05:19:14 10° SSE
USA 229 3.9 05:13:22 59° S 05:13:22 59° S 05:19:20 10° SSE
Cosmos 2227 Rocket 3.5 05:18:50 28° N 05:18:50 28° N 05:21:34 10° NNE
NOSS 3-1 (A) 4.3 05:22:14 35° NNW 05:25:37 62° NE 05:33:48 10° SE
Feng Yun 1-1 Rocket 4.2 05:20:19 10° NNE 05:25:48 80° ESE 05:26:07 77° SSE
SKYMED 2 4.4 05:23:26 10° SE 05:27:32 47° ENE 05:27:32 47° ENE
ADEOS II 4.3 05:27:37 10° N 05:28:18 14° N 05:28:18 14° N
ATLAS 2AS CENTAUR R/B 4.3 05:28:41 18° NNW 05:33:38 33° NNE 05:40:34 10° E
Cosmos 1340 Rocket 4.2 05:34:58 34° NE 05:35:38 36° ENE 05:39:19 10° SE
Cosmos 2221 4.5 05:35:20 10° SSE 05:39:03 29° E 05:42:47 10° NNE
Cosmos 1725 Rocket 4.1 05:40:50 54° NW 05:40:50 54° NW 05:46:06 10° N
SL-14 R/B 4.0 05:41:34 54° ESE 05:41:34 54° ESE 05:45:03 10° SSE
USA 234 3.8 05:51:42 10° E 05:57:59 51° NNE 06:01:29 26° NW
ERBS 3.9 05:59:50 28° SSE 05:59:50 28° SSE 06:01:39 10° SSE
Cosmos 1603 3.7 05:56:06 29° NNW 05:59:07 80° ENE 06:04:47 10° SSE
Cosmos 2151 2.8 05:59:21 75° NNW 05:59:42 87° WSW 06:03:56 10° S
NOSS 3-1 (C) 4.0 06:01:36 30° NW 06:05:44 73° WSW 06:14:01 10° SSE
Cosmos 1538 Rocket 4.2 06:13:23 40° WNW 06:14:50 51° WSW 06:19:59 10° S
COSMO-SKYMED 1 2.6 06:11:23 10° S 06:15:37 53° W 06:16:06 50° WNW
CZ-2C R/B 4.3 06:13:13 10° NE 06:17:12 28° E 06:21:08 10° SSE
IDEFIX/ARIANE 42P 4.4 06:13:44 10° NNE 06:18:30 33° E 06:23:13 10° SSE
CSL-04 Rocket 4.1 06:13:19 10° NNE 06:18:35 62° ESE 06:23:47 10° S
Cosmos 1805 Rocket 3.8 06:15:05 10° N 06:19:31 70° E 06:23:53 10° SSE
TELKOM 3 4.0 06:21:13 49° ESE 06:21:13 49° ESE 06:23:01 10° ENE
CZ-4 R/B 3.4 06:18:14 10° NNE 06:21:53 31° E 06:25:34 10° SSE
Ariane Rocket 3.1 06:17:16 10° NNE 06:22:24 80° ESE 06:27:31 10° SSW
Cosmos 923 Rocket 4.0 06:18:04 15° NNW 06:22:25 88° ENE 06:27:40 10° SSE
Genesis I 3.4 06:24:37 46° WSW 06:24:53 47° WSW 06:28:39 10° SSE
Cosmos 2233 Rocket 4.3 06:20:43 10° SW 06:26:38 43° WNW 06:32:39 10° N
SL-8 R/B 3.7 06:25:32 38° W 06:27:17 68° SSW 06:32:02 10° SE
Cosmos 1680 Rocket 3.6 06:25:07 10° NNW 06:30:28 81° ENE 06:35:47 10° SSE
Cosmos 2227 4.1 06:25:37 10° SSW 06:31:13 77° WNW 06:36:53 10° NNE
CZ-3 Stage 3 4.1 06:29:02 10° SW 06:33:02 22° SSE 06:43:23 10° SE
SeaSat 1 3.6 06:32:57 10° N 06:36:48 23° NW 06:36:52 23° NW
SL-16 R/B 3.6 06:39:13 19° WSW 06:39:13 19° WSW 06:42:18 10° SW
Sich 1 3.2 06:35:55 10° N 06:40:18 75° E 06:44:37 10° SSE
Cosmos 1633 Rocket 3.2 06:41:05 10° N 06:45:28 75° E 06:49:48 10° SSE
Coronas F rocket 1.5 06:44:22 15° N 06:46:11 58° E 06:48:33 10° SSE
PAYLOAD A 4.0 06:41:40 10° NNE 06:46:44 83° ESE 06:51:35 10° SSW
Cosmos 2297 Rocket 3.5 06:47:14 19° NW 06:47:45 19° NW 06:51:43 10° N
Cosmos 968 Rocket 4.3 06:46:55 18° WSW 06:49:51 30° WNW 06:54:28 10° N
Cosmos 2034 Rocket 3.9 06:44:13 10° S 06:50:25 80° W 06:56:43 10° N
Nadezhda 4 Rocket 4.1 06:45:05 10° N 06:51:28 85° E 06:57:45 10° S
Cosmos 1703 3.5 06:48:48 10° NNW 06:52:35 47° W 06:56:22 10° SSW
Cosmos 389 Rocket 2.9 06:51:59 10° S 06:55:38 70° E 06:59:19 10° NNE
Meteor 1-28 Rocket 4.3 06:56:46 10° SSW 06:59:51 24° W 07:01:21 19° WNW
Cosmos 2227 Rocket 3.9 07:00:41 13° NW 07:01:18 13° NW 07:03:49 10° NNW
Cosmos 1626 2.4 06:57:43 10° NNW 07:01:20 46° W 07:04:55 10° SSW
Cosmos 2058 4.0 07:00:42 17° NW 07:02:35 23° W 07:05:52 10° SW
Cosmos 1271 Rocket 3.8 07:00:39 10° SW 07:03:41 22° WNW 07:06:44 10° NNW
PSLV R/B 4.3 07:01:41 14° WSW 07:04:22 40° S 07:07:33 10° ESE
Cosmos 2344 4.1 06:57:35 10° SSW 07:05:10 68° ESE 07:13:47 10° NE
Cosmos 2112 Rocket 4.1 07:00:29 10° NNW 07:05:45 60° WSW 07:11:00 10° S
YAOGAN 1 3.0 07:02:25 10° NNE 07:06:46 67° ESE 07:11:03 10° S
Cosmos 1092 Rocket 4.1 07:03:54 10° N 07:10:14 86° E 07:16:28 10° S
Cosmos 1184 Rocket 3.4 07:08:23 10° NNW 07:11:26 34° W 07:14:28 10° SSW
BREEZE-M DEB (TANK) 2.2 07:09:46 16° WNW 07:11:49 52° NNE 07:13:52 10° E
Cosmos 1340 Rocket 4.3 07:10:40 15° WNW 07:11:49 17° W 07:14:27 10° SW
Cosmos 2221 3.4 07:12:56 10° SW 07:16:36 26° WNW 07:20:16 10° NNW
Cosmos 1666 Rocket 4.0 07:14:10 10° NNW 07:18:22 40° W 07:22:32 10° SSW
Cosmos 1943 3.4 07:14:26 10° NW 07:19:57 51° WSW 07:25:25 10° S
Cosmos 1464 Rocket 4.5 07:14:23 10° SW 07:20:11 37° WNW 07:25:58 10° N
Cosmos 1484 Rocket 3.6 07:17:09 10° NNE 07:21:09 57° E 07:25:03 10° S
SMAP 3.0 07:20:06 10° N 07:24:46 72° WNW 07:29:23 10° SSW
ATLAS 2AS CENTAUR R/B 3.1 07:17:33 10° NW 07:25:43 90° SW 07:33:19 10° SE
APEX 2.9 07:24:22 10° SSW 07:28:09 86° ESE 07:31:14 10° NNE
CORIOLIS 4.2 07:22:46 10° NNE 07:28:13 87° WNW 07:33:40 10° SSW
Cosmos 192 4.4 07:24:33 10° NNW 07:29:33 81° WSW 07:34:29 10° SSE
Helios 1B rocket 2.5 07:25:47 10° S 07:29:50 62° WSW 07:33:56 10° NNW
Cosmos 1933 Rocket 3.6 07:25:33 10° N 07:30:02 80° W 07:34:27 10° S
Tiangong 2 2.7 07:27:41 10° SW 07:30:34 33° SSE 07:33:26 10° E
SJ-7 4.5 07:28:58 10° N 07:32:54 55° WNW 07:36:51 10° SSW
SPOT 3 Rocket 3.6 07:33:32 10° N 07:38:44 71° WNW 07:43:55 10° SSW
USA 234 3.5 07:34:24 10° SE 07:40:54 64° SW 07:47:26 10° NW
COSMOS 2406 4.0 07:35:24 10° NNW 07:41:05 55° ENE 07:46:44 10° SE
